Tracking 22438 objects as of 25-Feb-2021
HD Live streaming from Space Station
objects crossing your sky now

FREGAT DEB

Track FREGAT DEB now!
10-day predictions


NORAD ID: 46008
Int'l Code: 2011-037HK
Perigee: 590.1 km
Apogee: 3,488.2 km
Inclination: 51.3 °
Period: 127.9 minutes
Semi major axis: 8410 km
RCS: Unknown
Launch date: July 18, 2011
Source: Commonwealth of Independent States (former USSR) (CIS)
Launch site: TYURATAM MISSILE AND SPACE COMPLEX (TTMTR)

Note: This is SATELLITE DEBRIS
aabbcc
Your satellite tracking list
Your tracking list is empty




NASA's NSSDC Master Catalog

Two Line Element Set (TLE):
1 46008U 11037HK  20216.45839589  .00013573  00000-0  10322-1 0  9990
2 46008  51.3400 235.4565 1723021 164.0843 202.2508 11.25636107   589
Source of the keplerian elements: AFSPC